Regional Weather Roundup
Issued by NWS

Home | Current Version | Previous Version | Graphics & Text | Print | Product List | Glossary On
Versions: 1 2 3 4 5 6 7 8 9 10 11 12 13 14 15 16 17 18 19 20 21 22 23 24 25 26 27 28 29 30 31 32 33 34 35 36 37 38 39 40 41 42 43 44 45 46 47 48 49 50
000
ASUS43 KMPX 181410
RWRMN
WEATHER ROUNDUP FOR MINNESOTA
NATIONAL WEATHER SERVICE TWIN CITIES/CHANHASSEN MN
800 AM CST THU JAN 18 2018


NOTE: "FAIR" INDICATES FEW OR NO CLOUDS BELOW 12,000 FEET WITH NO
SIGNIFICANT WEATHER AND/OR OBSTRUCTIONS TO VISIBILITY. N/A MEANS
CURRENT SKY AND/OR WEATHER CONDITIONS ARE NOT AVAILABLE.

MNZ060>063-068>070-181500-
   Twin Cities Metro

CITY           SKY/WX    TMP DP  RH WIND       PRES   REMARKS
TWIN CITIES    FAIR      23  18  81 SW7       29.89F WCI  15
ST PAUL        FAIR      19  17  92 SE5       29.90F WCI  12
CRYSTAL        FAIR      22  14  71 S6        29.86F WCI  14
BLAINE         PTCLDY    25  19  80 S9        29.85F WCI  15
LAKEVILLE      FAIR      19  16  86 CALM      29.90R
EDEN PRAIRIE   FAIR      20  15  81 SW9       29.87F WCI   9
SOUTH ST PAUL  FAIR      16  14  93 CALM      29.89F
LAKE ELMO      FAIR      19  18  93 S8        29.89F WCI   9
$$
MNZ001>005-007-008-013>017-022>024-027-028-181500-
   Northwest Minnesota

CITY           SKY/WX    TMP DP  RH WIND       PRES   REMARKS
BEMIDJI        CLOUDY    30  24  78 W12       29.72R WCI  20
HALLOCK        CLOUDY    25  19  80 NW5       29.76S WCI  19
ROSEAU         CLOUDY    25  19  80 W7        29.72R WCI  17
WARROAD        FAIR      23  19  86 W9        29.71S WCI  13
CROOKSTON      FAIR      19  16  86 NW3       29.79R
FOSSTON        CLOUDY    21  16  79 SW6       29.76R WCI  14
DETROIT LAKES  FAIR      28  23  80 W9        29.78S WCI  20
MOORHEAD       FAIR      19  16  86 SW6       29.81S WCI  11
PARK RAPIDS    FAIR      23  17  78 W9        29.74R WCI  13
MAHNOMEN       FAIR      21  17  84 W9        29.76R WCI  11
$$
MNZ006-009>011-018-025>026-181500-
   North Central Minnesota

CITY           SKY/WX    TMP DP  RH WIND       PRES   REMARKS
BAUDETTE       CLOUDY    28  24  85 NW13      29.67R WCI  17
FLAG ISLAND    CLOUDY    25  21  86 NW12      29.68R WCI  14
INTL FALLS     CLOUDY    30  25  81 W14       29.65R WCI  19
WASKISH        CLOUDY    30  25  80 W9        29.70S WCI  22
BIG FORK       CLOUDY    34  27  75 W9        29.67S WCI  26
LONGVILLE      CLOUDY    27  19  74 SW5       29.73R WCI  21
GRAND RAPIDS   CLOUDY    31  23  72 W6        29.71S WCI  25
CRANE LAKE     CLOUDY    30  28  93 CALM      29.66S
ORR            CLOUDY    30  27  86 W12       29.63S WCI  21
COOK           CLOUDY    28  27  93 W7        29.66S WCI  21
WALKER         CLOUDY    30  21  69 W9        29.72S WCI  22
$$
MNZ012-019>021-037-181500-
   Northeast Minnesota

CITY           SKY/WX    TMP DP  RH WIND       PRES   REMARKS
DULUTH         CLOUDY    30  22  72 W14       29.69R WCI  19
ELY            CLOUDY    27  27 100 SW6       29.64S FOG     WCI  20
HIBBING        CLOUDY    27  22  81 SW3       29.68R
EVELETH        CLOUDY    26  20  77 W5        29.68S WCI  20
DULUTH HARBOR  CLOUDY    30  23  74 SW14      29.74R WCI  20
TWO HARBORS    MOCLDY    34  25  69 SW7       29.67S WCI  28
SILVER BAY     CLOUDY    28  25  86 W5        29.65S WCI  23
GRAND MARAIS     N/A     27  23  85 CALM      29.67S
G MARAIS ARPRT CLOUDY    23  19  86 CALM      29.62R
$$
MNZ029>031-032-039>041-046>048-054>057-064-181500-
   West Central Minnesota

CITY           SKY/WX    TMP DP  RH WIND       PRES   REMARKS
FERGUS FALLS   FAIR      19  18  93 W5        29.82S WCI  13
WHEATON        FAIR      28  19  69 SW8       29.85S WCI  20
MORRIS         FAIR      23  19  86 CALM      29.83R
ALEXANDRIA     FAIR      32  21  64 W13       29.81S WCI  22
ELBOW LAKE     FAIR      22  19  87 CALM      29.82S
WADENA         FAIR      23  19  86 W10       29.77R WCI  12
GLENWOOD       FAIR      25  19  80 W10       29.82S WCI  15
APPLETON       FAIR      27  19  74 W5        29.85R WCI  21
BENSON         FAIR      16  14  93 CALM      29.86S
ORTONVILLE     FAIR      34  21  60 W9        29.83S WCI  26
MADISON        FAIR      30  21  69 W6        29.85R WCI  24
WILLMAR        FAIR      16  12  86 NW3       29.88R
$$
MNZ033>034-036-042>043-049>051-058-059-181500-
   Central Minnesota

CITY           SKY/WX    TMP DP  RH WIND       PRES   REMARKS
ST CLOUD       FAIR      20  16  84 SW8       29.82F WCI  10
SAUK CENTRE      N/A     23  18  80 SW9       29.81S WCI  13
PAYNESVILLE    FAIR      19  17  92 W7        29.84S WCI   9
AITKIN         FAIR      28  19  69 W6        29.74R WCI  22
PINE RIVER     FAIR      27  19  74 CALM      29.78S
BRAINERD       FAIR      26  18  71 W7        29.76S WCI  18
STAPLES        FAIR      27  19  74 W9        29.77R WCI  17
LONG PRAIRIE   FAIR      23  19  86 S6        29.80R WCI  16
LITTLE FALLS   FAIR      28  16  59 SW5       29.79S WCI  23
LITCHFIELD     FAIR      23  19  86 SW5       29.85S WCI  17
BUFFALO        FAIR      21  17  84 S6        29.86F WCI  13
MAPLE LAKE     FAIR      21  18  88 MISG      29.85F
HUTCHINSON     FAIR      19  16  88 CALM      29.87F
$$
MNZ037-044-045-052-053-181500-
   East Central Minnesota

CITY           SKY/WX    TMP DP  RH WIND       PRES   REMARKS
PRINCETON      FAIR      25  19  80 S8        29.80F WCI  16
MORA           FAIR      21  18  86 SW5       29.80S WCI  15
CAMBRIDGE      FAIR      25  16  68 S6        29.81F WCI  18
RUSH CITY      FAIR      24  18  77 SW9       29.80F WCI  15
MOOSE LAKE     FAIR      23  19  86 SW3       29.73S
HINCKLEY       FAIR      27  19  74 SW7       29.78R WCI  19
CLOQUET        MOCLDY    25  18  74 S5        29.71S WCI  19
MCGREGOR       FAIR      30  23  74 SW3       29.74S
$$
MNZ071>073-080-081-089-090-097-098-181500-
   Southwest Minnesota

CITY           SKY/WX    TMP DP  RH WIND       PRES   REMARKS
MONTEVIDEO     FAIR      25  19  80 SW8       29.84F WCI  16
GRANITE FALLS  FAIR      27  21  77 S12       29.88S WCI  17
CANBY          FAIR      34  23  63 SW16G23   29.84F WCI  24
MARSHALL       FAIR      28  21  75 SW16      29.87F WCI  16
REDWOOD FALLS  FAIR      25  19  78 SW9       29.88R WCI  15
OLIVIA         FAIR      23  21  93 SW10      29.86S WCI  12
PIPESTONE      FAIR      18  16  93 SW9       29.91F WCI   6
WINDOM         FAIR      21   7  53 S9        29.92F WCI  11
WORTHINGTON    FAIR      19  16  88 SW14      29.93F WCI   6
JACKSON        FAIR      21  16  79 SW14      29.93F WCI   8
SLAYTON        FAIR      19  17  88 SW12      29.91F WCI   7
$$
MNZ065>067-074>077-082>085-091>093-181500-
   South Central Minnesota

CITY           SKY/WX    TMP DP  RH WIND       PRES   REMARKS
MANKATO        FAIR      20  16  84 S10       29.91F WCI   9
NEW ULM        FAIR      19  16  86 SW7       29.89S WCI  10
ST JAMES       FAIR      25  19  80 SW8       29.92S WCI  16
FAIRMONT       FAIR      21  17  84 SW9       29.94F WCI  11
FARIBAULT      FAIR      19  16  86 S9        29.91S WCI   9
OWATONNA       FAIR      19  16  86 S7        29.91S WCI  10
WASECA         FAIR      19  16  86 S8        29.93F WCI   9
ALBERT LEA     FAIR      19  14  79 CALM      29.94F
$$
MNZ078>079-086>088-094>096-181500-
   Southeast Minnesota

CITY           SKY/WX    TMP DP  RH WIND       PRES   REMARKS
ROCHESTER      FAIR      18  14  84 S16       29.91F WCI   3
RED WING       FAIR      18  12  79 CALM      29.92S
STANTON        FAIR      20  15  80 SW10      29.88F WCI   9
DODGE CENTER   FAIR      18  12  79 SW17      29.90F WCI   2
WINONA         FAIR      23  16  74 CALM      29.94S
AUSTIN         FAIR      18  12  79 SW9       29.94F WCI   6
PRESTON        FAIR      18  12  79 SW13      29.95F WCI   4
$$
ABBREVIATIONS USED IN REMARKS
   TC - TEMPERATURES IN CELSIUS
  WCI - WIND CHILL INDEX
   HX - HEAT INDEX
  VSB - VISIBILITY
$$



USA.gov is the U.S. government's official web portal to all federal, state and local government web resources and services.